WA8SIE Weather Reports


time (UTC)temp
C
wind
direction
speed
KPH
gust
KPH
rain 1hr
cm
rain 24hr
cm
rain mn
cm
humidity
%
barometer
mb
20260901024013 26 198 0.0 0.0 0.00 0.00 0.00 95 1013.8
20260901023511 26 198 0.0 0.0 0.00 0.00 0.00 95 1013.8
20260901023011 26 198 0.0 0.0 0.00 0.00 0.00 95 1013.8
20260901022011 26 198 0.0 0.0 0.00 0.00 0.00 95 1013.7
20260901021011 26 198 0.0 0.0 0.00 0.00 0.00 94 1013.8
20260901020511 26 198 0.0 0.0 0.00 0.00 0.00 94 1013.8
20260901015011 26 198 0.0 0.0 0.00 0.00 0.00 93 1013.6
20260901014513 26 198 0.0 0.0 0.00 0.00 0.00 93 1013.6
20260901014011 26 198 0.0 0.0 0.00 0.00 0.00 93 1013.4
20260901013511 26 198 0.0 0.0 0.00 0.00 0.00 92 1013.4
20260901013011 26 198 0.0 0.0 0.00 0.00 0.00 92 1013.4
20260901012011 26 198 0.0 0.0 0.00 0.00 0.00 92 1013.3
20260901011011 26 198 0.0 0.0 0.00 0.00 0.00 91 1013.2
20260901010510 27 199 0.0 0.0 0.00 0.00 0.00 90 1013.2
20260901005511 27 198 0.0 1.6 0.00 0.00 0.00 90 1012.9
20260901005012 27 198 0.0 1.6 0.00 0.00 0.00 90 1012.9
20260901004510 27 198 0.0 0.0 0.00 0.00 0.00 89 1012.9
20260901004012 27 198 0.0 0.0 0.00 0.00 0.00 89 1012.7
20260901003511 27 198 0.0 0.0 0.00 0.00 0.00 89 1012.7
20260901003011 27 198 0.0 0.0 0.00 0.00 0.00 88 1012.7
20260901002511 27 198 0.0 0.0 0.00 0.00 0.00 88 1012.5
20260901002011 27 198 0.0 0.0 0.00 0.00 0.00 87 1012.5
20260901001513 27 198 0.0 0.0 0.00 0.00 0.00 87 1012.5
20260901000510 27 198 0.0 0.0 0.00 0.00 0.00 86 1012.6
20260901000012 27 198 0.0 0.0 0.00 0.00 0.00 86 1012.6
20260831235511 27 198 0.0 0.0 0.00 0.00 0.00 86 1012.6
20260831235011 28 198 0.0 0.0 0.00 0.00 0.00 84 1012.6
20260831234511 28 198 0.0 0.0 0.00 0.00 0.00 84 1012.6
20260831234012 28 198 0.0 0.0 0.00 0.00 0.00 83 1012.6
20260831233511 28 198 0.0 4.8 0.00 0.00 0.00 83 1012.6
20260831233010 28 198 0.0 4.8 0.00 0.00 0.00 83 1012.6
20260831232510 28 198 1.6 4.8 0.00 0.00 0.00 83 1012.6
20260831232010 28 198 3.2 3.2 0.00 0.00 0.00 82 1012.6
20260831231511 28 198 0.0 0.0 0.00 0.00 0.00 81 1012.6
20260831231011 28 198 0.0 0.0 0.00 0.00 0.00 82 1012.8
20260831230511 28 198 0.0 0.0 0.00 0.00 0.00 81 1012.8
20260831230010 28 198 0.0 1.6 0.00 0.00 0.00 79 1012.8
20260831225510 28 198 0.0 1.6 0.00 0.00 0.00 78 1012.9
20260831225011 28 198 0.0 0.0 0.00 0.00 0.00 76 1012.9
20260831224511 29 198 0.0 0.0 0.00 0.00 0.00 75 1012.9
20260831223512 30 198 0.0 0.0 0.00 0.00 0.00 74 1012.9
20260831223011 30 198 0.0 0.0 0.00 0.00 0.00 73 1012.9
20260831222510 30 198 0.0 0.0 0.00 0.00 0.00 72 1013.0
20260831222010 30 198 0.0 0.0 0.00 0.00 0.00 71 1013.0
20260831221510 30 198 0.0 0.0 0.00 0.00 0.00 69 1013.0
20260831221010 30 198 0.0 0.0 0.00 0.00 0.00 69 1013.0
20260831220510 30 198 0.0 0.0 0.00 0.00 0.00 67 1013.0
20260831220011 30 198 0.0 0.0 0.00 0.00 0.00 70 1013.0
20260831215012 30 198 0.0 0.0 0.00 0.00 0.00 70 1013.2
20260831214511 30 198 0.0 0.0 0.00 0.00 0.00 67 1013.2
20260831214010 30 198 0.0 0.0 0.00 0.00 0.00 66 1013.4
20260831213510 30 198 0.0 4.8 0.00 0.00 0.00 63 1013.4
20260831213010 31 198 0.0 4.8 0.00 0.00 0.00 62 1013.4
20260831212010 31 198 0.0 9.7 0.00 0.00 0.00 60 1013.3
20260831211511 31 198 0.0 9.7 0.00 0.00 0.00 61 1013.3
20260831211010 31 181 0.0 0.0 0.00 0.00 0.00 61 1013.1
20260831210512 31 181 0.0 0.0 0.00 0.00 0.00 62 1013.1
20260831210011 31 181 0.0 1.6 0.00 0.00 0.00 60 1013.1
20260831205510 31 181 0.0 6.4 0.00 0.00 0.00 59 1013.3
20260831205011 31 181 0.0 9.7 0.00 0.00 0.00 59 1013.3
20260831204510 32 195 0.0 9.7 0.00 0.00 0.00 58 1013.3
20260831204011 32 223 0.0 8.0 0.00 0.00 0.00 56 1013.4
20260831203510 32 249 1.6 6.4 0.00 0.00 0.00 58 1013.4
20260831203012 32 297 3.2 6.4 0.00 0.00 0.00 58 1013.4
20260831202511 32 232 0.0 6.4 0.00 0.00 0.00 58 1013.5
20260831202011 32 321 4.8 6.4 0.00 0.00 0.00 58 1013.5
20260831201511 32 198 0.0 6.4 0.00 0.00 0.00 58 1013.5
20260831201011 32 197 0.0 1.6 0.00 0.00 0.00 58 1013.7
20260831200513 32 198 0.0 4.8 0.00 0.00 0.00 57 1013.7
20260831200011 32 15 1.6 4.8 0.00 0.00 0.00 59 1013.7
20260831195511 31 178 0.0 9.7 0.00 0.00 0.00 60 1013.9
20260831195011 31 177 0.0 9.7 0.00 0.00 0.00 60 1013.9
20260831194511 32 177 0.0 8.0 0.00 0.00 0.00 59 1013.9
20260831194011 32 225 0.0 8.0 0.00 0.00 0.00 60 1014.0
20260831193511 32 301 0.0 11.3 0.00 0.00 0.00 59 1014.0
20260831193011 32 210 0.0 11.3 0.00 0.00 0.00 60 1014.0
20260831192511 32 222 3.2 6.4 0.00 0.00 0.00 60 1014.2
20260831191511 32 25 0.0 4.8 0.00 0.00 0.00 60 1014.2
20260831191011 32 25 0.0 6.4 0.00 0.00 0.00 61 1014.4
20260831190511 32 27 0.0 6.4 0.00 0.00 0.00 59 1014.4
20260831190011 32 332 0.0 9.7 0.00 0.00 0.00 61 1014.4
20260831185512 32 301 0.0 9.7 0.00 0.00 0.00 61 1014.5
20260831185013 32 316 4.8 8.0 0.00 0.00 0.00 61 1014.5
20260831184513 32 193 0.0 8.0 0.00 0.00 0.00 63 1014.5
20260831184011 31 325 0.0 6.4 0.00 0.00 0.00 63 1014.6
20260831183011 31 185 0.0 9.7 0.00 0.00 0.00 64 1014.6
20260831182511 31 226 0.0 6.4 0.00 0.00 0.00 63 1014.7
20260831182011 31 274 0.0 14.5 0.00 0.00 0.00 66 1014.7
20260831181511 31 338 0.0 14.5 0.00 0.00 0.00 65 1014.7
20260831170011 30 202 0.0 4.8 0.00 0.00 0.00 69 1015.2
20260831165511 29 201 0.0 4.8 0.00 0.00 0.00 67 1015.3
20260831165011 29 202 1.6 6.4 0.00 0.00 0.00 71 1015.3
20260831164512 28 202 0.0 6.4 0.00 0.00 0.00 70 1015.3
20260831163511 28 182 0.0 14.5 0.00 0.00 0.00 71 1015.5
20260831163011 28 183 0.0 14.5 0.00 0.00 0.00 75 1015.5
20260831162511 28 193 0.0 3.2 0.00 0.00 0.00 78 1015.6
20260831162013 27 205 0.0 3.2 0.00 0.00 0.00 79 1015.6
20260831161513 27 205 0.0 3.2 0.00 0.00 0.00 81 1015.6
20260831161011 27 205 0.0 4.8 0.00 0.00 0.00 81 1015.6
20260831160511 27 205 0.0 4.8 0.00 0.00 0.00 83 1015.6
20260831160011 26 217 0.0 0.0 0.00 0.00 0.00 83 1015.6
20260831155511 26 217 0.0 0.0 0.00 0.00 0.00 83 1015.6
20260831154511 26 216 0.0 4.8 0.00 0.00 0.00 82 1015.6
20260831154011 26 217 0.0 4.8 0.00 0.00 0.00 81 1015.8
20260831153511 26 217 0.0 4.8 0.00 0.00 0.00 80 1015.8
20260831153011 26 127 0.0 0.0 0.00 0.00 0.00 80 1015.8
20260831152513 26 127 0.0 0.0 0.00 0.00 0.00 80 1015.8
20260831152011 26 127 0.0 0.0 0.00 0.00 0.00 81 1015.8
20260831151012 26 127 0.0 0.0 0.00 0.00 0.00 81 1015.9
20260831150511 26 127 0.0 0.0 0.00 0.00 0.00 81 1015.9
20260831150012 26 127 0.0 0.0 0.00 0.00 0.00 82 1015.9
20260831145511 26 127 0.0 0.0 0.00 0.00 0.00 83 1015.7
20260831145011 26 127 0.0 3.2 0.00 0.00 0.00 82 1015.7
20260831144011 25 126 0.0 4.8 0.00 0.00 0.00 85 1015.7
20260831143511 25 34 3.2 3.2 0.00 0.00 0.00 88 1015.7
20260831143012 25 14 0.0 0.0 0.00 0.00 0.00 90 1015.7
20260831142511 25 14 0.0 3.2 0.00 0.00 0.00 92 1015.5
20260831142011 24 14 0.0 3.2 0.00 0.00 0.00 92 1015.5
20260831141511 24 15 0.0 1.6 0.00 0.00 0.00 94 1015.5
20260831140011 23 14 0.0 0.0 0.00 0.00 0.00 97 1015.4
20260831135512 23 13 0.0 0.0 0.00 0.00 0.00 98 1015.5
20260831135011 23 14 0.0 4.8 0.00 0.00 0.00 99 1015.5
20260831134511 23 14 0.0 4.8 0.00 0.00 0.00 100 1015.5
20260831134011 23 8 1.6 4.8 0.00 0.00 0.00 100 1015.7
20260831133511 23 2 0.0 3.2 0.00 0.00 0.00 100 1015.7
20260831133011 23 2 0.0 3.2 0.00 0.00 0.00 100 1015.7
20260831132512 22 1 0.0 0.0 0.00 0.00 0.00 100 1015.7
20260831132010 22 1 0.0 0.0 0.00 0.00 0.00 100 1015.7
20260831131510 22 1 0.0 0.0 0.00 0.00 0.00 100 1015.7
20260831131011 22 2 0.0 0.0 0.00 0.00 0.00 100 1015.7
20260831130511 22 2 0.0 0.0 0.00 0.00 0.00 100 1015.7
20260831125011 22 1 0.0 0.0 0.00 0.00 0.00 100 1015.4
20260831124511 22 1 0.0 0.0 0.00 0.00 0.00 100 1015.4
20260831124011 22 2 0.0 0.0 0.00 0.00 0.00 100 1015.5
20260831123511 21 1 0.0 0.0 0.00 0.00 0.00 100 1015.5
20260831123011 21 1 0.0 0.0 0.00 0.00 0.00 100 1015.5
20260831122511 21 1 0.0 0.0 0.00 0.00 0.00 100 1015.5
20260831122011 21 1 0.0 0.0 0.00 0.00 0.00 100 1015.5
20260831121511 21 1 0.0 0.0 0.00 0.00 0.00 100 1015.5
20260831121010 21 1 0.0 0.0 0.00 0.00 0.00 100 1015.3
20260831120512 21 1 0.0 0.0 0.00 0.00 0.00 100 1015.3
20260831120011 21 1 0.0 0.0 0.00 0.00 0.00 100 1015.3
20260831115511 21 1 0.0 0.0 0.00 0.00 0.00 100 1015.1
20260831113511 21 1 0.0 0.0 0.00 0.00 0.00 100 1014.9
20260831113011 20 1 0.0 0.0 0.00 0.00 0.00 100 1014.9
20260831112510 20 1 0.0 0.0 0.00 0.00 0.00 100 1014.9
20260831110010 20 1 0.0 0.0 0.00 0.00 0.00 100 1014.9
20260831105511 20 1 0.0 0.0 0.00 0.00 0.00 100 1014.8
20260831104011 20 1 0.0 0.0 0.00 0.00 0.00 100 1014.8
20260831103512 20 2 0.0 0.0 0.00 0.00 0.00 100 1014.8
20260831103010 20 1 0.0 0.0 0.00 0.00 0.00 100 1014.8
20260831102510 20 1 0.0 0.0 0.00 0.00 0.00 100 1014.7
20260831102011 20 1 0.0 0.0 0.00 0.00 0.00 100 1014.7
20260831101510 20 1 0.0 0.0 0.00 0.00 0.00 100 1014.7
20260831101010 20 1 0.0 0.0 0.00 0.00 0.00 100 1014.5
20260831100010 20 1 0.0 0.0 0.00 0.00 0.00 100 1014.5
20260831095512 21 1 0.0 0.0 0.00 0.00 0.00 100 1014.4
20260831095010 21 1 0.0 0.0 0.00 0.00 0.00 100 1014.4
20260831094510 21 1 0.0 0.0 0.00 0.00 0.00 100 1014.4
20260831093510 21 1 0.0 3.2 0.00 0.00 0.00 100 1014.3
20260831093010 21 1 3.2 3.2 0.00 0.00 0.00 100 1014.3
20260831092510 21 0.0 0.0 0.00 0.00 0.00 100 1014.3
20260831092010 21 0.0 0.0 0.00 0.00 0.00 100 1014.3
20260831091010 21 0.0 0.0 0.00 0.00 0.00 100 1014.3
20260831090510 21 0.0 0.0 0.00 0.00 0.00 100 1014.3
20260831090010 21 0.0 3.2 0.00 0.00 0.00 100 1014.3
20260831085510 21 0.0 3.2 0.00 0.00 0.00 100 1014.3
20260831084510 21 0.0 0.0 0.00 0.00 0.00 100 1014.3
20260831083510 21 0.0 0.0 0.00 0.00 0.00 100 1014.2
20260831083010 21 0.0 0.0 0.00 0.00 0.00 100 1014.2
20260831082010 21 0.0 0.0 0.00 0.00 0.00 100 1014.1
20260831081510 21 0.0 0.0 0.00 0.00 0.00 100 1014.1
20260831081010 21 1 0.0 0.0 0.00 0.00 0.00 100 1013.9
20260831080512 21 0.0 0.0 0.00 0.00 0.00 100 1013.9
20260831080010 21 1 0.0 0.0 0.00 0.00 0.00 100 1013.9
20260831075011 21 0.0 0.0 0.00 0.00 0.00 100 1013.9
20260831074513 21 0.0 0.0 0.00 0.00 0.00 100 1013.9
20260831074013 21 1 0.0 0.0 0.00 0.00 0.00 100 1013.9
20260831073511 21 0.0 0.0 0.00 0.00 0.00 100 1013.9
20260831073011 21 0.0 0.0 0.00 0.00 0.00 100 1013.9
20260831072511 21 0.0 0.0 0.00 0.00 0.00 100 1013.8
20260831072011 22 1 0.0 0.0 0.00 0.00 0.00 100 1013.8
20260831071511 22 0.0 0.0 0.00 0.00 0.00 100 1013.8
20260831071011 22 0.0 0.0 0.00 0.00 0.00 100 1013.9
20260831070511 22 1 0.0 0.0 0.00 0.00 0.00 100 1013.9
20260831070011 22 1 0.0 0.0 0.00 0.00 0.00 100 1013.9
20260831065511 22 0.0 0.0 0.00 0.00 0.00 100 1014.0
20260831065011 22 0.0 0.0 0.00 0.00 0.00 100 1014.0
20260831064513 22 0.0 0.0 0.00 0.00 0.00 100 1014.0
20260831064011 22 0.0 0.0 0.00 0.00 0.00 100 1014.0
20260831063512 22 1 0.0 0.0 0.00 0.00 0.00 100 1014.0
20260831062512 22 0.0 0.0 0.00 0.00 0.00 100 1013.9
20260831062011 22 1 0.0 0.0 0.00 0.00 0.00 100 1013.9
20260831061511 22 0.0 0.0 0.00 0.00 0.00 100 1013.9
20260831061011 22 0.0 0.0 0.00 0.00 0.00 100 1014.2
20260831060511 22 0.0 0.0 0.00 0.00 0.00 100 1014.2
20260831060011 22 1 0.0 0.0 0.00 0.00 0.00 100 1014.2
20260831055511 22 0.0 0.0 0.00 0.00 0.00 100 1014.1
20260831055011 22 0.0 0.0 0.00 0.00 0.00 100 1014.1
20260831054011 22 0.0 0.0 0.00 0.00 0.00 100 1014.1
20260831052013 22 0.0 0.0 0.00 0.00 0.00 100 1014.2
20260831051511 22 0.0 0.0 0.00 0.00 0.00 100 1014.2
20260831051012 23 0.0 0.0 0.00 0.00 0.00 100 1014.3
20260831050511 23 0.0 0.0 0.00 0.00 0.00 100 1014.3
20260831050013 23 0.0 0.0 0.00 0.00 0.00 100 1014.3
20260831045011 23 0.0 0.0 0.00 0.00 0.00 100 1014.3
20260831044513 23 0.0 0.0 0.00 0.00 0.00 100 1014.3
20260831044011 23 0.0 0.0 0.00 0.00 0.00 100 1014.4
20260831043511 23 0.0 0.0 0.00 0.00 0.00 100 1014.4
20260831043012 23 0.0 0.0 0.00 0.00 0.00 100 1014.4
20260831042511 23 0.0 0.0 0.00 0.00 0.00 100 1014.4
20260831042011 23 0.0 0.0 0.00 0.00 0.00 99 1014.4
20260831040511 23 0.0 0.0 0.00 0.00 0.00 99 1014.5
20260831040011 23 1 0.0 0.0 0.00 0.00 0.00 99 1014.5
20260831035511 23 0.0 0.0 0.00 0.00 0.00 99 1014.5
20260831035011 23 1 0.0 0.0 0.00 0.00 0.00 98 1014.5
20260831034511 23 0.0 0.0 0.00 0.00 0.00 98 1014.5
20260831034012 23 0.0 0.0 0.00 0.00 0.00 98 1014.6
20260831033511 23 0.0 0.0 0.00 0.00 0.00 98 1014.6
20260831033011 23 1 0.0 0.0 0.00 0.00 0.00 98 1014.6
20260831032011 24 1 0.0 0.0 0.00 0.00 0.00 98 1014.5
20260831031511 24 0.0 0.0 0.00 0.00 0.00 98 1014.5
20260831031011 24 1 0.0 0.0 0.00 0.00 0.00 98 1014.6
20260831030511 24 1 0.0 0.0 0.00 0.00 0.00 98 1014.6
20260831030012 24 0.0 0.0 0.00 0.00 0.00 97 1014.6
20260831025011 24 0.0 0.0 0.00 0.00 0.00 97 1014.4
20260831024511 24 0.0 0.0 0.00 0.00 0.00 97 1014.4